Search the data

BODC Cruise Metadata Report for BIO Hesperides (29HE) cruise HE9308

Introduction

This report collates information from the BODC cruise inventory and oceanographic databases. It presents

Cruise Inventory Information

Long name BIO Hesperides (29HE) cruise HE9308
Short name HE9308
Objectives and Narrative
Ship BIO Hesperides
Departure Port
Departure Date 1993-08-06
Arrival Port
Arrival Date 1993-08-27
Principal Scientist(s)
Responsible Organisation Miami University
Associated Project(s)
IHB Sea Areas Visited
Marsden Squares Visited
Work Area Description
Work Area Bounding Polygon
Southern Limit unknown
Northern Limit unknown
Western Limit unknown
Eastern Limit unknown

Cruise Inventory Datasets

No information on datasets is currently available for this cruise

Cruise Inventory Mooring/Buoy Operations

No information on datasets is currently available

Summary of BODC Data Holdings for the Cruise

National Oceanographic Database

Summary

# Series Instrument Description Parameters
212 CTD/STD cast Chlorophyll pigment concentrations in water bodies
Date and time
Dissolved oxygen parameters in the water column
Reference numbers
Salinity of the water column
Temperature of the water column
Transmittance and attenuance of the water column
Vertical spatial coordinates
1 CTD/STD cast Chlorophyll pigment concentrations in water bodies
Date and time
Reference numbers
Salinity of the water column
Temperature of the water column
Vertical spatial coordinates

Note: Parameter terms are taken from the BODC Parameter Discovery Vocabulary XML (SKOS)

Full List

BODC Reference Instrument Description Date/Time Location  
483381 CTD/STD cast 1993-08-06 12:01Z to 1993-08-06 12:05Z 29° 0' N, 18° 35' W Click for more
483393 CTD/STD cast 1993-08-06 16:42Z to 1993-08-06 16:46Z 28° 46' N, 18° 21' W Click for more
483400 CTD/STD cast 1993-08-06 20:50Z to 1993-08-06 20:54Z 28° 36' N, 18° 9' W Click for more
483412 CTD/STD cast 1993-08-07 01:01Z to 1993-08-07 01:05Z 28° 25' N, 17° 57' W Click for more
483424 CTD/STD cast 1993-08-07 03:40Z to 1993-08-07 03:44Z 28° 13' N, 17° 46' W Click for more
483436 CTD/STD cast 1993-08-07 09:49Z to 1993-08-07 09:53Z 28° 3' N, 17° 34' W Click for more
483448 CTD/STD cast 1993-08-07 12:47Z to 1993-08-07 12:51Z 27° 52' N, 17° 22' W Click for more
483461 CTD/STD cast 1993-08-07 15:15Z to 1993-08-07 15:19Z 27° 40' N, 17° 12' W Click for more
483473 CTD/STD cast 1993-08-07 18:10Z to 1993-08-07 18:14Z 27° 30' N, 17° 0' W Click for more
483485 CTD/STD cast 1993-08-08 03:43Z to 1993-08-08 03:47Z 27° 30' N, 16° 1' W Click for more
483497 CTD/STD cast 1993-08-08 05:19Z to 1993-08-08 05:23Z 27° 30' N, 15° 52' W Click for more
483504 CTD/STD cast 1993-08-08 07:38Z to 1993-08-08 07:42Z 27° 30' N, 15° 45' W Click for more
483516 CTD/STD cast 1993-08-08 13:37Z to 1993-08-08 13:41Z 27° 30' N, 15° 36' W Click for more
483528 CTD/STD cast 1993-08-08 16:05Z to 1993-08-08 16:09Z 27° 30' N, 15° 28' W Click for more
483541 CTD/STD cast 1993-08-08 19:03Z to 1993-08-08 19:04Z 27° 26' N, 15° 42' W Click for more
483553 CTD/STD cast 1993-08-08 19:43Z to 1993-08-08 19:44Z 27° 27' N, 15° 42' W Click for more
483565 CTD/STD cast 1993-08-08 20:17Z to 1993-08-08 20:18Z 27° 27' N, 15° 43' W Click for more
483577 CTD/STD cast 1993-08-08 21:05Z to 1993-08-08 21:06Z 27° 28' N, 15° 44' W Click for more
483589 CTD/STD cast 1993-08-08 21:44Z to 1993-08-08 21:45Z 27° 29' N, 15° 45' W Click for more
483590 CTD/STD cast 1993-08-08 22:23Z to 1993-08-08 22:24Z 27° 30' N, 15° 45' W Click for more
483608 CTD/STD cast 1993-08-08 23:13Z to 1993-08-08 23:14Z 27° 31' N, 15° 46' W Click for more
483621 CTD/STD cast 1993-08-09 00:00Z to 1993-08-09 00:01Z 27° 31' N, 15° 47' W Click for more
483633 CTD/STD cast 1993-08-09 00:39Z to 1993-08-09 00:40Z 27° 32' N, 15° 48' W Click for more
483645 CTD/STD cast 1993-08-09 01:20Z to 1993-08-09 01:21Z 27° 33' N, 15° 48' W Click for more
483657 CTD/STD cast 1993-08-09 01:58Z to 1993-08-09 01:59Z 27° 34' N, 15° 49' W Click for more
483669 CTD/STD cast 1993-08-09 02:47Z to 1993-08-09 02:48Z 27° 34' N, 15° 50' W Click for more
483670 CTD/STD cast 1993-08-09 03:27Z to 1993-08-09 03:28Z 27° 35' N, 15° 51' W Click for more
483682 CTD/STD cast 1993-08-09 04:01Z to 1993-08-09 04:02Z 27° 36' N, 15° 51' W Click for more
483694 CTD/STD cast 1993-08-09 04:41Z to 1993-08-09 04:42Z 27° 36' N, 15° 52' W Click for more
483701 CTD/STD cast 1993-08-09 17:20Z to 1993-08-09 17:24Z 27° 30' N, 15° 19' W Click for more
483713 CTD/STD cast 1993-08-10 00:47Z to 1993-08-10 00:51Z 27° 30' N, 15° 3' W Click for more
483725 CTD/STD cast 1993-08-10 04:10Z to 1993-08-10 04:14Z 27° 30' N, 14° 46' W Click for more
483737 CTD/STD cast 1993-08-10 06:55Z to 1993-08-10 06:59Z 27° 30' N, 14° 28' W Click for more
483749 CTD/STD cast 1993-08-10 09:31Z to 1993-08-10 09:35Z 27° 30' N, 14° 12' W Click for more
483750 CTD/STD cast 1993-08-10 12:22Z to 1993-08-10 12:27Z 27° 30' N, 13° 55' W Click for more
483762 CTD/STD cast 1993-08-10 16:01Z to 1993-08-10 16:02Z 27° 30' N, 13° 39' W Click for more
483774 CTD/STD cast 1993-08-10 17:07Z to 1993-08-10 17:08Z 27° 30' N, 13° 39' W Click for more
483786 CTD/STD cast 1993-08-10 20:51Z to 1993-08-10 20:54Z 27° 21' N, 13° 45' W Click for more
483798 CTD/STD cast 1993-08-10 22:53Z to 1993-08-10 22:57Z 27° 12' N, 13° 52' W Click for more
483805 CTD/STD cast 1993-08-11 01:14Z to 1993-08-11 01:18Z 27° 5' N, 14° 0' W Click for more
483817 CTD/STD cast 1993-08-11 03:03Z to 1993-08-11 03:04Z 27° 3' N, 14° 1' W Click for more
483829 CTD/STD cast 1993-08-11 03:36Z to 1993-08-11 03:37Z 27° 2' N, 14° 3' W Click for more
483830 CTD/STD cast 1993-08-11 04:13Z to 1993-08-11 04:15Z 27° 0' N, 14° 4' W Click for more
483842 CTD/STD cast 1993-08-11 04:52Z to 1993-08-11 04:53Z 26° 58' N, 14° 6' W Click for more
483854 CTD/STD cast 1993-08-11 05:26Z to 1993-08-11 05:29Z 26° 57' N, 14° 7' W Click for more
483866 CTD/STD cast 1993-08-11 07:01Z to 1993-08-11 07:02Z 26° 56' N, 14° 9' W Click for more
483878 CTD/STD cast 1993-08-11 08:05Z to 1993-08-11 08:06Z 26° 54' N, 14° 10' W Click for more
483891 CTD/STD cast 1993-08-11 08:55Z to 1993-08-11 08:56Z 26° 52' N, 14° 12' W Click for more
483909 CTD/STD cast 1993-08-11 09:36Z to 1993-08-11 09:37Z 26° 51' N, 14° 13' W Click for more
483910 CTD/STD cast 1993-08-11 11:43Z to 1993-08-11 11:43Z 26° 46' N, 14° 1' W Click for more
483922 CTD/STD cast 1993-08-11 14:00Z to 1993-08-11 14:04Z 26° 49' N, 14° 15' W Click for more
483934 CTD/STD cast 1993-08-11 16:00Z to 1993-08-11 16:03Z 26° 42' N, 14° 22' W Click for more
483946 CTD/STD cast 1993-08-11 18:02Z to 1993-08-11 18:04Z 26° 34' N, 14° 28' W Click for more
483958 CTD/STD cast 1993-08-11 20:54Z to 1993-08-11 20:58Z 26° 35' N, 14° 51' W Click for more
483971 CTD/STD cast 1993-08-11 22:54Z to 1993-08-11 22:58Z 26° 42' N, 14° 43' W Click for more
483983 CTD/STD cast 1993-08-12 01:26Z to 1993-08-12 01:30Z 26° 49' N, 14° 36' W Click for more
483995 CTD/STD cast 1993-08-12 03:30Z to 1993-08-12 03:34Z 26° 56' N, 14° 27' W Click for more
484009 CTD/STD cast 1993-08-12 09:01Z to 1993-08-12 09:05Z 27° 10' N, 14° 18' W Click for more
484010 CTD/STD cast 1993-08-12 10:29Z to 1993-08-12 10:30Z 27° 12' N, 14° 18' W Click for more
484022 CTD/STD cast 1993-08-12 09:01Z to 1993-08-12 09:05Z 27° 5' N, 14° 22' W Click for more
484034 CTD/STD cast 1993-08-12 12:59Z to 1993-08-12 13:00Z 27° 14' N, 14° 15' W Click for more
484046 CTD/STD cast 1993-08-12 13:52Z to 1993-08-12 13:54Z 27° 16' N, 14° 13' W Click for more
484058 CTD/STD cast 1993-08-12 14:34Z to 1993-08-12 14:35Z 27° 18' N, 14° 12' W Click for more
484071 CTD/STD cast 1993-08-12 15:06Z to 1993-08-12 15:07Z 27° 19' N, 14° 10' W Click for more
484083 CTD/STD cast 1993-08-12 11:30Z to 1993-08-12 11:34Z 27° 13' N, 14° 16' W Click for more
484095 CTD/STD cast 1993-08-12 15:50Z to 1993-08-12 15:54Z 27° 21' N, 14° 9' W Click for more
484102 CTD/STD cast 1993-08-12 17:54Z to 1993-08-12 17:59Z 27° 28' N, 14° 1' W Click for more
484114 CTD/STD cast 1993-08-12 20:13Z to 1993-08-12 20:17Z 27° 37' N, 13° 55' W Click for more
484126 CTD/STD cast 1993-08-12 23:36Z to 1993-08-12 23:40Z 27° 37' N, 14° 16' W Click for more
484138 CTD/STD cast 1993-08-13 01:47Z to 1993-08-13 01:51Z 27° 28' N, 14° 24' W Click for more
484151 CTD/STD cast 1993-08-13 03:34Z to 1993-08-13 03:38Z 27° 21' N, 14° 31' W Click for more
484163 CTD/STD cast 1993-08-13 05:50Z to 1993-08-13 05:54Z 27° 13' N, 14° 37' W Click for more
484175 CTD/STD cast 1993-08-13 07:48Z to 1993-08-13 07:52Z 27° 5' N, 14° 45' W Click for more
484187 CTD/STD cast 1993-08-13 09:49Z to 1993-08-13 09:53Z 26° 57' N, 14° 52' W Click for more
484199 CTD/STD cast 1993-08-13 12:08Z to 1993-08-13 12:12Z 26° 49' N, 14° 59' W Click for more
484206 CTD/STD cast 1993-08-13 14:09Z to 1993-08-13 14:13Z 26° 42' N, 15° 6' W Click for more
484218 CTD/STD cast 1993-08-13 16:18Z to 1993-08-13 16:22Z 26° 34' N, 15° 13' W Click for more
484231 CTD/STD cast 1993-08-13 19:15Z to 1993-08-13 19:19Z 26° 34' N, 15° 36' W Click for more
484243 CTD/STD cast 1993-08-13 21:42Z to 1993-08-13 21:46Z 26° 42' N, 15° 29' W Click for more
484255 CTD/STD cast 1993-08-14 03:09Z to 1993-08-14 03:10Z 26° 54' N, 15° 18' W Click for more
484267 CTD/STD cast 1993-08-14 00:28Z to 1993-08-14 00:32Z 26° 49' N, 15° 22' W Click for more
484279 CTD/STD cast 1993-08-14 06:59Z to 1993-08-14 07:00Z 27° 1' N, 15° 10' W Click for more
484280 CTD/STD cast 1993-08-14 04:35Z to 1993-08-14 04:39Z 26° 57' N, 15° 15' W Click for more
484292 CTD/STD cast 1993-08-14 10:28Z to 1993-08-14 10:29Z 27° 9' N, 15° 4' W Click for more
484311 CTD/STD cast 1993-08-14 08:19Z to 1993-08-14 08:22Z 27° 5' N, 15° 8' W Click for more
484323 CTD/STD cast 1993-08-14 13:43Z to 1993-08-14 13:44Z 27° 16' N, 14° 57' W Click for more
484335 CTD/STD cast 1993-08-14 11:46Z to 1993-08-14 11:50Z 27° 12' N, 15° 1' W Click for more
484347 CTD/STD cast 1993-08-14 17:03Z to 1993-08-14 17:04Z 27° 24' N, 14° 49' W Click for more
484359 CTD/STD cast 1993-08-14 14:57Z to 1993-08-14 15:01Z 27° 21' N, 14° 54' W Click for more
484360 CTD/STD cast 1993-08-14 18:04Z to 1993-08-14 18:08Z 27° 28' N, 14° 46' W Click for more
484372 CTD/STD cast 1993-08-14 21:05Z to 1993-08-14 21:09Z 27° 37' N, 14° 40' W Click for more
484384 CTD/STD cast 1993-08-15 00:51Z to 1993-08-15 00:55Z 27° 37' N, 15° 1' W Click for more
484396 CTD/STD cast 1993-08-15 03:06Z to 1993-08-15 03:10Z 27° 28' N, 15° 7' W Click for more
484403 CTD/STD cast 1993-08-15 05:44Z to 1993-08-15 05:48Z 27° 21' N, 15° 15' W Click for more
484415 CTD/STD cast 1993-08-15 07:44Z to 1993-08-15 07:48Z 27° 13' N, 15° 22' W Click for more
484427 CTD/STD cast 1993-08-15 12:06Z to 1993-08-15 12:10Z 27° 5' N, 15° 30' W Click for more
484439 CTD/STD cast 1993-08-15 15:03Z to 1993-08-15 15:07Z 26° 57' N, 15° 36' W Click for more
484440 CTD/STD cast 1993-08-15 16:49Z to 1993-08-15 16:53Z 26° 49' N, 15° 43' W Click for more
484452 CTD/STD cast 1993-08-15 18:42Z to 1993-08-15 18:46Z 26° 42' N, 15° 49' W Click for more
484464 CTD/STD cast 1993-08-15 21:51Z to 1993-08-15 21:55Z 26° 42' N, 16° 12' W Click for more
484476 CTD/STD cast 1993-08-16 01:03Z to 1993-08-16 01:07Z 26° 49' N, 16° 4' W Click for more
484488 CTD/STD cast 1993-08-16 07:17Z to 1993-08-16 07:21Z 27° 5' N, 15° 51' W Click for more
484507 CTD/STD cast 1993-08-16 10:00Z to 1993-08-16 10:04Z 27° 12' N, 15° 44' W Click for more
484519 CTD/STD cast 1993-08-16 12:46Z to 1993-08-16 12:50Z 27° 21' N, 15° 37' W Click for more
484520 CTD/STD cast 1993-08-16 15:20Z to 1993-08-16 15:23Z 27° 28' N, 15° 30' W Click for more
484532 CTD/STD cast 1993-08-16 17:51Z to 1993-08-16 17:55Z 27° 37' N, 15° 22' W Click for more
484544 CTD/STD cast 1993-08-16 20:50Z to 1993-08-16 20:51Z 27° 43' N, 15° 46' W Click for more
484556 CTD/STD cast 1993-08-16 22:01Z to 1993-08-16 22:02Z 27° 42' N, 15° 46' W Click for more
484568 CTD/STD cast 1993-08-16 22:55Z to 1993-08-16 22:56Z 27° 43' N, 15° 46' W Click for more
484581 CTD/STD cast 1993-08-17 00:02Z to 1993-08-17 00:02Z 27° 43' N, 15° 46' W Click for more
484593 CTD/STD cast 1993-08-17 01:01Z to 1993-08-17 01:02Z 27° 43' N, 15° 46' W Click for more
484600 CTD/STD cast 1993-08-17 02:02Z to 1993-08-17 02:02Z 27° 43' N, 15° 46' W Click for more
484612 CTD/STD cast 1993-08-17 02:59Z to 1993-08-17 02:59Z 27° 43' N, 15° 46' W Click for more
484624 CTD/STD cast 1993-08-17 03:57Z to 1993-08-17 03:57Z 27° 43' N, 15° 46' W Click for more
484636 CTD/STD cast 1993-08-17 04:56Z to 1993-08-17 04:56Z 27° 43' N, 15° 46' W Click for more
484648 CTD/STD cast 1993-08-17 05:55Z to 1993-08-17 05:55Z 27° 43' N, 15° 46' W Click for more
484661 CTD/STD cast 1993-08-17 06:57Z to 1993-08-17 06:57Z 27° 43' N, 15° 46' W Click for more
484673 CTD/STD cast 1993-08-17 07:58Z to 1993-08-17 07:58Z 27° 43' N, 15° 46' W Click for more
484685 CTD/STD cast 1993-08-17 08:57Z to 1993-08-17 08:58Z 27° 42' N, 15° 46' W Click for more
484697 CTD/STD cast 1993-08-17 15:27Z to 1993-08-17 15:28Z 27° 36' N, 15° 51' W Click for more
484704 CTD/STD cast 1993-08-17 16:07Z to 1993-08-17 16:08Z 27° 37' N, 15° 53' W Click for more
484716 CTD/STD cast 1993-08-17 16:59Z to 1993-08-17 17:00Z 27° 39' N, 15° 54' W Click for more
484728 CTD/STD cast 1993-08-17 17:45Z to 1993-08-17 17:46Z 27° 40' N, 15° 56' W Click for more
484741 CTD/STD cast 1993-08-17 18:38Z to 1993-08-17 18:39Z 27° 42' N, 15° 58' W Click for more
484753 CTD/STD cast 1993-08-17 19:07Z to 1993-08-17 19:07Z 27° 42' N, 15° 58' W Click for more
484765 CTD/STD cast 1993-08-17 19:51Z to 1993-08-17 19:52Z 27° 43' N, 16° 0' W Click for more
484777 CTD/STD cast 1993-08-17 20:38Z to 1993-08-17 20:40Z 27° 45' N, 16° 1' W Click for more
484789 CTD/STD cast 1993-08-17 21:24Z to 1993-08-17 21:25Z 27° 46' N, 16° 3' W Click for more
484790 CTD/STD cast 1993-08-17 22:06Z to 1993-08-17 22:07Z 27° 48' N, 16° 5' W Click for more
484808 CTD/STD cast 1993-08-17 22:49Z to 1993-08-17 22:50Z 27° 49' N, 16° 7' W Click for more
484821 CTD/STD cast 1993-08-17 23:30Z to 1993-08-17 23:31Z 27° 51' N, 16° 9' W Click for more
484833 CTD/STD cast 1993-08-18 00:05Z to 1993-08-18 00:07Z 27° 51' N, 16° 10' W Click for more
484845 CTD/STD cast 1993-08-18 01:47Z to 1993-08-18 01:49Z 27° 52' N, 15° 55' W Click for more
484857 CTD/STD cast 1993-08-18 03:08Z to 1993-08-18 03:10Z 28° 0' N, 15° 55' W Click for more
484869 CTD/STD cast 1993-08-18 04:38Z to 1993-08-18 04:42Z 27° 58' N, 16° 3' W Click for more
484870 CTD/STD cast 1993-08-18 07:05Z to 1993-08-18 07:10Z 28° 8' N, 16° 11' W Click for more
484882 CTD/STD cast 1993-08-18 10:27Z to 1993-08-18 10:31Z 28° 4' N, 16° 25' W Click for more
484894 CTD/STD cast 1993-08-18 13:52Z to 1993-08-18 13:57Z 27° 58' N, 16° 19' W Click for more
484901 CTD/STD cast 1993-08-18 15:13Z to 1993-08-18 15:15Z 27° 55' N, 16° 17' W Click for more
484913 CTD/STD cast 1993-08-18 17:40Z to 1993-08-18 17:42Z 27° 51' N, 16° 25' W Click for more
484925 CTD/STD cast 1993-08-18 19:52Z to 1993-08-18 19:54Z 27° 43' N, 16° 32' W Click for more
484937 CTD/STD cast 1993-08-18 23:48Z to 1993-08-18 23:50Z 27° 36' N, 16° 39' W Click for more
484949 CTD/STD cast 1993-08-19 01:50Z to 1993-08-19 01:52Z 27° 21' N, 16° 38' W Click for more
484950 CTD/STD cast 1993-08-19 03:33Z to 1993-08-19 03:35Z 27° 14' N, 16° 30' W Click for more
484962 CTD/STD cast 1993-08-19 05:15Z to 1993-08-19 05:17Z 27° 7' N, 16° 22' W Click for more
484974 CTD/STD cast 1993-08-19 07:21Z to 1993-08-19 07:23Z 27° 7' N, 16° 6' W Click for more
484986 CTD/STD cast 1993-08-19 09:13Z to 1993-08-19 09:15Z 27° 15' N, 16° 15' W Click for more
484998 CTD/STD cast 1993-08-19 12:40Z to 1993-08-19 12:42Z 27° 28' N, 16° 31' W Click for more
485001 CTD/STD cast 1993-08-19 14:26Z to 1993-08-19 14:28Z 27° 36' N, 16° 24' W Click for more
485013 CTD/STD cast 1993-08-19 16:06Z to 1993-08-19 16:08Z 27° 30' N, 16° 16' W Click for more
485025 CTD/STD cast 1993-08-19 17:40Z to 1993-08-19 17:42Z 27° 22' N, 16° 8' W Click for more
485037 CTD/STD cast 1993-08-19 19:24Z to 1993-08-19 19:26Z 27° 22' N, 16° 23' W Click for more
485049 CTD/STD cast 1993-08-19 20:16Z to 1993-08-19 20:18Z 27° 20' N, 16° 21' W Click for more
485050 CTD/STD cast 1993-08-19 21:06Z to 1993-08-19 21:08Z 27° 18' N, 16° 19' W Click for more
485062 CTD/STD cast 1993-08-19 22:00Z to 1993-08-19 22:02Z 27° 16' N, 16° 16' W Click for more
485074 CTD/STD cast 1993-08-20 02:11Z to 1993-08-20 02:13Z 27° 16' N, 15° 58' W Click for more
485086 CTD/STD cast 1993-08-20 03:47Z to 1993-08-20 03:49Z 27° 23' N, 15° 52' W Click for more
485098 CTD/STD cast 1993-08-20 05:24Z to 1993-08-20 05:26Z 27° 30' N, 16° 1' W Click for more
485105 CTD/STD cast 1993-08-20 07:11Z to 1993-08-20 07:13Z 27° 37' N, 16° 9' W Click for more
485117 CTD/STD cast 1993-08-21 06:43Z to 1993-08-21 06:45Z 27° 16' N, 16° 17' W Click for more
485129 CTD/STD cast 1993-08-20 08:42Z to 1993-08-20 08:44Z 27° 44' N, 16° 17' W Click for more
485130 CTD/STD cast 1993-08-20 23:06Z to 1993-08-20 23:08Z 27° 16' N, 16° 16' W Click for more
485142 CTD/STD cast 1993-08-21 00:08Z to 1993-08-21 00:10Z 27° 16' N, 16° 16' W Click for more
485154 CTD/STD cast 1993-08-21 01:08Z to 1993-08-21 01:10Z 27° 16' N, 16° 16' W Click for more
485166 CTD/STD cast 1993-08-21 02:02Z to 1993-08-21 02:04Z 27° 16' N, 16° 16' W Click for more
485178 CTD/STD cast 1993-08-21 03:13Z to 1993-08-21 03:15Z 27° 16' N, 16° 16' W Click for more
485191 CTD/STD cast 1993-08-21 04:01Z to 1993-08-21 04:04Z 27° 16' N, 16° 17' W Click for more
485209 CTD/STD cast 1993-08-21 05:10Z to 1993-08-21 05:12Z 27° 16' N, 16° 16' W Click for more
485210 CTD/STD cast 1993-08-21 08:10Z to 1993-08-21 08:12Z 27° 16' N, 16° 18' W Click for more
485222 CTD/STD cast 1993-08-21 09:03Z to 1993-08-21 09:05Z 27° 16' N, 16° 18' W Click for more
485234 CTD/STD cast 1993-08-21 10:10Z to 1993-08-21 10:12Z 27° 16' N, 16° 19' W Click for more
485246 CTD/STD cast 1993-08-21 11:00Z to 1993-08-21 11:02Z 27° 16' N, 16° 19' W Click for more
485258 CTD/STD cast 1993-08-20 21:21Z to 1993-08-20 21:25Z 27° 16' N, 16° 17' W Click for more
485271 CTD/STD cast 1993-08-23 09:16Z to 1993-08-23 09:16Z 27° 32' N, 17° 24' W Click for more
485283 CTD/STD cast 1993-08-23 18:24Z to 1993-08-23 18:24Z 26° 21' N, 16° 9' W Click for more
485295 CTD/STD cast 1993-08-24 00:20Z to 1993-08-24 00:24Z 26° 43' N, 16° 30' W Click for more
485302 CTD/STD cast 1993-08-24 01:58Z to 1993-08-24 02:02Z 26° 46' N, 16° 28' W Click for more
485314 CTD/STD cast 1993-08-24 03:48Z to 1993-08-24 03:53Z 26° 48' N, 16° 27' W Click for more
485326 CTD/STD cast 1993-08-24 05:17Z to 1993-08-24 05:21Z 26° 51' N, 16° 26' W Click for more
485338 CTD/STD cast 1993-08-24 08:11Z to 1993-08-24 08:15Z 26° 55' N, 16° 24' W Click for more
485351 CTD/STD cast 1993-08-24 10:53Z to 1993-08-24 10:57Z 26° 45' N, 16° 16' W Click for more
485363 CTD/STD cast 1993-08-24 12:18Z to 1993-08-24 12:22Z 26° 46' N, 16° 19' W Click for more
485375 CTD/STD cast 1993-08-24 13:54Z to 1993-08-24 13:58Z 26° 48' N, 16° 21' W Click for more
485387 CTD/STD cast 1993-08-24 15:16Z to 1993-08-24 15:20Z 26° 49' N, 16° 24' W Click for more
485399 CTD/STD cast 1993-08-24 16:32Z to 1993-08-24 16:36Z 26° 49' N, 16° 27' W Click for more
485406 CTD/STD cast 1993-08-24 20:31Z to 1993-08-24 20:35Z 26° 48' N, 16° 30' W Click for more
485418 CTD/STD cast 1993-08-24 22:08Z to 1993-08-24 22:12Z 26° 49' N, 16° 33' W Click for more
485431 CTD/STD cast 1993-08-24 23:40Z to 1993-08-24 23:44Z 26° 51' N, 16° 36' W Click for more
485443 CTD/STD cast 1993-08-25 01:52Z to 1993-08-25 01:55Z 26° 48' N, 16° 30' W Click for more
485455 CTD/STD cast 1993-08-25 03:00Z to 1993-08-25 03:02Z 26° 48' N, 16° 30' W Click for more
485467 CTD/STD cast 1993-08-25 04:11Z to 1993-08-25 04:13Z 26° 48' N, 16° 31' W Click for more
485479 CTD/STD cast 1993-08-25 05:13Z to 1993-08-25 05:15Z 26° 48' N, 16° 30' W Click for more
485480 CTD/STD cast 1993-08-25 06:26Z to 1993-08-25 06:28Z 26° 48' N, 16° 30' W Click for more
485492 CTD/STD cast 1993-08-25 07:32Z to 1993-08-25 07:34Z 26° 48' N, 16° 30' W Click for more
485511 CTD/STD cast 1993-08-25 08:38Z to 1993-08-25 08:40Z 26° 48' N, 16° 30' W Click for more
485523 CTD/STD cast 1993-08-25 09:27Z to 1993-08-25 09:29Z 26° 48' N, 16° 30' W Click for more
485535 CTD/STD cast 1993-08-25 10:38Z to 1993-08-25 10:40Z 26° 48' N, 16° 30' W Click for more
485547 CTD/STD cast 1993-08-25 11:34Z to 1993-08-25 11:36Z 26° 48' N, 16° 30' W Click for more
485559 CTD/STD cast 1993-08-25 12:34Z to 1993-08-25 12:36Z 26° 48' N, 16° 30' W Click for more
485560 CTD/STD cast 1993-08-25 13:36Z to 1993-08-25 13:38Z 26° 48' N, 16° 30' W Click for more
485572 CTD/STD cast 1993-08-25 14:34Z to 1993-08-25 14:36Z 26° 49' N, 16° 30' W Click for more
485584 CTD/STD cast 1993-08-25 15:37Z to 1993-08-25 15:39Z 26° 48' N, 16° 30' W Click for more
485596 CTD/STD cast 1993-08-25 16:39Z to 1993-08-25 16:42Z 26° 48' N, 16° 31' W Click for more
485603 CTD/STD cast 1993-08-25 17:33Z to 1993-08-25 17:35Z 26° 48' N, 16° 32' W Click for more
485615 CTD/STD cast 1993-08-25 18:44Z to 1993-08-25 18:46Z 26° 48' N, 16° 30' W Click for more
485627 CTD/STD cast 1993-08-25 19:34Z to 1993-08-25 19:36Z 26° 48' N, 16° 30' W Click for more
485639 CTD/STD cast 1993-08-25 20:38Z to 1993-08-25 20:40Z 26° 48' N, 16° 30' W Click for more
485640 CTD/STD cast 1993-08-25 21:33Z to 1993-08-25 21:35Z 26° 48' N, 16° 30' W Click for more
485652 CTD/STD cast 1993-08-25 22:34Z to 1993-08-25 22:36Z 26° 48' N, 16° 30' W Click for more
485664 CTD/STD cast 1993-08-25 23:29Z to 1993-08-25 23:31Z 26° 48' N, 16° 30' W Click for more
485676 CTD/STD cast 1993-08-26 00:37Z to 1993-08-26 00:39Z 26° 48' N, 16° 30' W Click for more
485688 CTD/STD cast 1993-08-26 01:26Z to 1993-08-26 01:28Z 26° 48' N, 16° 30' W Click for more
485707 CTD/STD cast 1993-08-26 10:29Z to 1993-08-26 10:29Z 26° 39' N, 16° 24' W Click for more

Project Database

No data currently held for this cruise in the BODC Project Database

References

Track Charts

No track charts currently available

Reports

No reports currently available